shoulder
new_line
new_line
first
second
third
Al di la della Luna; Beyond the Moon; Astrophotography; Astrofotografia; Danilo Pivato
 
 
         
     
 
2020

 

Orbital Elements

Epoch 2020 July 10.0 TT = JDT 2459040.5
T 2020 July 3.68133 TT                                                       Rudenko
q   0.2947065                   (2000.0)               P                         Q
z  +0.0027459      Peri.     37.27428     +0.71858402     +0.14393304
 +/-0.0000297      Node     61.01114     +0.28198556     -0.95461655
e   0.9991908      Incl.    128.93729     +0.63570524     +0.26074993 
                        
 
     
Orbit Diagram
 
         
2020.07.10
2020.07.12 - 02h 16m UT
2020.07.12 - 02h 22m UT
2020.07.13
2020.07.13 - 20h 19mUT
         
2020.07.15   - 250mm
2020.07.15   - 500mm
2020.07.17  Mosaic - 250mm
2020.07.17  - 20h 37m UT -250mm
2020.07.18 - 250mm
         
2020.07.19 - BRC250
Video NeoWISE 2020.07.19 [18,46 Mb]
2020.07.19 - 250mm
Comet from Massimo Penna's all sky
2020.07.20 - BRC250
         
Video NeoWISE 2020.07.20 [18,46 Mb]
2020.07.20 - 250mm
2020.07.21 - BRC250
2020.07.22  - 50mm
2020.07.24 - BRC250
         
2020.07.25 - BRC250
2020.07.26 - 500mm
2020.07.27 - 500mm
2020.07.28 - 500mm
2020.08.01 - 500mm with full Moon
         
2020.08.05 500mm
2020.08.06 500mm
2020.08.09 500mm
2020.08.15 500mm
2020.09.18 BRC250
         
         
         
       
         
         
         
         
         

 

       
 
Since: 01/01/2004
 
           
Since: 01/11/2010